Home > Weather > Marchtrenk > Past weeks

Flag for Austria Past Weather in Marchtrenk, Upper Austria, Austria — Yesterday and Last 2 Weeks

Now
66 °F

Partly sunny.


Feels Like: 66 °F
Forecast: 54 / 75 °F
Wind: 6 mph from Northwest

Location: Linz / Hoersching-Flughafen

Current Time: May 25, 2016 at 7:00:46 PM

Latest Report: May 25, 2016 at 6:20 PM


Visibility: N/A

Pressure: 29.92 "Hg

Humidity: 64%

Dew Point: 54 °F

Location of MarchtrenkLocation

Past Weather in Marchtrenk — Graph

°F

Marchtrenk Temperature Yesterday

Maximum temperature yesterday: 55 °F (at 2:50 PM)
Minimum temperature yesterday: 46 °F (at 1:20 AM)
Average temperature yesterday: 50 °F

High & Low Weather Summary for the Past Weeks

 TemperatureHumidityPressure
High82 °F (May 22, 3:20 PM)100% (May 12, 10:50 PM)30.18 "Hg (May 12, 10:50 PM)
Low41 °F (May 16, 12:20 AM)29% (May 21, 6:20 PM)29.39 "Hg (May 12, 2:20 PM)
Average56 °F76%29.87 "Hg
* Reported May 10 5:20 PM — May 25 5:50 PM, Marchtrenk, Weather by CustomWeather, © 2016

Note: Actual official high and low records may vary slightly from our data, if they occured in-between our weather recording intervals... More about our weather records

Advertising

Marchtrenk Weather History for the Previous 24 Hours

Scroll right to see more
 ConditionsComfort  
Time TempWeatherWind HumidityBarometerVisibility
5:50 PM
Wed, May 25
66 °FPartly sunny.5 mph68%29.92 "HgN/A
5:20 PM64 °FPartly sunny.5 mph68%29.95 "HgN/A
4:50 PM66 °FPartly sunny.5 mph60%29.95 "HgN/A
4:20 PM66 °FPartly sunny.5 mph64%29.95 "HgN/A
3:50 PM66 °FScattered clouds.5 mph60%29.95 "HgN/A
3:20 PM66 °FScattered clouds.3 mph64%29.95 "HgN/A
2:50 PM64 °FPassing clouds.5 mph68%29.95 "HgN/A
2:20 PM63 °FBroken clouds.6 mph73%29.95 "HgN/A
1:50 PM63 °FBroken clouds.5 mph73%29.95 "HgN/A
1:20 PM61 °FPartly sunny.5 mph77%29.95 "HgN/A
12:50 PM59 °FBroken clouds.6 mph77%29.98 "HgN/A
12:20 PM57 °FBroken clouds.5 mph88%29.98 "HgN/A
11:50 AM57 °FBroken clouds.5 mph82%29.98 "HgN/A
11:20 AM55 °FPartly sunny.7 mph88%29.98 "HgN/A
10:50 AM55 °FBroken clouds.8 mph88%29.98 "HgN/A
10:20 AM55 °FBroken clouds.5 mph88%29.98 "Hg5 mi
9:50 AM54 °FSprinkles. Broken clouds.5 mph94%29.98 "Hg4 mi
9:20 AM54 °FSprinkles. Partly sunny.5 mph94%29.98 "Hg4 mi
8:50 AM52 °FSprinkles. Fog.6 mph94%29.98 "Hg3 mi
8:20 AM52 °FSprinkles. Fog.8 mph94%29.98 "Hg3 mi
7:50 AM52 °FSprinkles. Partly sunny.8 mph94%29.98 "Hg4 mi
7:20 AM52 °FSprinkles. Partly sunny.9 mph94%29.98 "Hg4 mi
6:50 AM52 °FPartly sunny.9 mph94%29.95 "Hg5 mi
6:20 AM52 °FPartly sunny.8 mph94%29.95 "Hg5 mi
5:50 AM52 °FLight rain. Passing clouds.9 mph94%29.95 "Hg4 mi
5:20 AM52 °FLight rain. Passing clouds.7 mph94%29.95 "Hg4 mi
4:50 AM52 °FLight rain. Passing clouds.8 mph94%29.95 "Hg5 mi
4:20 AM52 °FLight rain. Passing clouds.10 mph94%29.95 "HgN/A
3:50 AM52 °FSprinkles. Partly cloudy.8 mph94%29.95 "HgN/A
3:20 AM52 °FLight rain. Passing clouds.8 mph94%29.95 "HgN/A
2:50 AM52 °FPartly cloudy.9 mph94%29.95 "HgN/A
2:20 AM52 °FSprinkles. Passing clouds.7 mph94%29.95 "HgN/A
1:50 AM52 °FOvercast.8 mph94%29.95 "HgN/A
1:20 AM52 °FSprinkles. Partly cloudy.10 mph94%29.95 "HgN/A
12:50 AM52 °FPartly cloudy.10 mph94%29.95 "HgN/A
12:20 AM52 °FPassing clouds.12 mph94%29.95 "HgN/A
11:50 PM
Tue, May 24
52 °FLight rain. Passing clouds.10 mph94%29.95 "HgN/A
11:20 PM52 °FPassing clouds.12 mph94%29.95 "HgN/A
10:50 PM52 °FPassing clouds.13 mph88%29.95 "HgN/A
10:20 PM52 °FPassing clouds.14 mph88%29.95 "HgN/A
9:50 PM52 °FPassing clouds.12 mph88%29.95 "HgN/A
9:20 PM52 °FPartly sunny.9 mph94%29.95 "HgN/A
8:50 PM52 °FPartly sunny.12 mph94%29.92 "HgN/A
8:20 PM52 °FBroken clouds.13 mph94%29.92 "HgN/A
7:50 PM52 °FBroken clouds.13 mph94%29.89 "HgN/A
7:20 PM52 °FBroken clouds.13 mph94%29.89 "HgN/A
Weather by CustomWeather, © 2016

See weather overviewHow to use our weather pages